This is the latest recevied weather packets stored in our database for station/object K3RUP-1. If no packets are shown the sender has not sent any weather packets the latest 10 day(s).
| Time | Temp. | Humidity | Pressure | Rain* | Wind** | Luminosity | Snow |
|---|---|---|---|---|---|---|---|
| 1787871893 | 26.67° C | 82% | 1012.7 hPa | 0 mm | - | 12 W/m² | - |
| 1787871588 | 27.22° C | 82% | 1012.7 hPa | 0 mm | - | 13 W/m² | - |
| 1787871283 | 27.22° C | 81% | 1012.6 hPa | 0 mm | - | 17 W/m² | - |
| 1787870978 | 27.22° C | 81% | 1012.7 hPa | 0 mm | - | 21 W/m² | - |
| 1787870678 | 27.22° C | 80% | 1012.6 hPa | 0 mm | - | 23 W/m² | - |
| 1787870372 | 27.22° C | 80% | 1012.8 hPa | 0 mm | - | 26 W/m² | - |
| 1787870072 | 27.22° C | 80% | 1012.9 hPa | 0 mm | - | 28 W/m² | - |
| 1787869766 | 27.22° C | 80% | 1013 hPa | 0 mm | - | 34 W/m² | - |
| 1787869462 | 27.22° C | 80% | 1012.9 hPa | 0 mm | - | 40 W/m² | - |
| 1787869156 | 27.22° C | 81% | 1013 hPa | 0 mm | - | 39 W/m² | - |
| 1787868856 | 27.78° C | 80% | 1013.2 hPa | 0 mm | - | 38 W/m² | - |
| 1787868554 | 27.78° C | 80% | 1012.9 hPa | 0 mm | - | 40 W/m² | - |
| 1787868253 | 27.78° C | 79% | 1012.8 hPa | 0 mm | - | 46 W/m² | - |
| 1787867949 | 27.78° C | 79% | 1012.8 hPa | 0 mm | - | 56 W/m² | - |
| 1787867644 | 27.78° C | 78% | 1012.7 hPa | 0 mm | - | 68 W/m² | - |
| 1787867338 | 28.33° C | 77% | 1012.6 hPa | 0 mm | - | 71 W/m² | - |
| 1787867034 | 28.33° C | 77% | 1012.6 hPa | 0 mm | - | 72 W/m² | - |
| 1787866729 | 28.33° C | 75% | 1012.4 hPa | 0 mm | - | 68 W/m² | - |
| 1787866428 | 28.33° C | 74% | 1012.5 hPa | 0 mm | - | 60 W/m² | - |
| 1787866122 | 28.33° C | 74% | 1012.4 hPa | 0 mm | - | 74 W/m² | - |
| 1787865817 | 28.89° C | 73% | 1012.3 hPa | 0 mm | - | 77 W/m² | - |
| 1787865513 | 28.89° C | 72% | 1012.3 hPa | 0 mm | - | 96 W/m² | - |
| 1787865208 | 28.89° C | 73% | 1012.5 hPa | 0 mm | - | 95 W/m² | - |
| 1787864904 | 28.89° C | 72% | 1012.5 hPa | 0 mm | - | 94 W/m² | - |
| 1787864599 | 28.89° C | 74% | 1012.4 hPa | 0 mm | - | 107 W/m² | - |
* Rain latest hour (hover to see other rain measurements)
** Current wind speed in m/s (hover to see current wind gust speed)